IRIDIUM 102

Last updated on Fri Sep 11 2026 00:03:06 GMT+0000 (Coordinated Universal Time)

1 41920U 17003D 26253.52386930 .00000028 00000+0 29962-5 0 9993 2 41920 86.3932 52.7303 0002086 90.4379 269.7056 14.34217628505516
UTC large
Height (km)
Speed (km/s)
/
Latitude / Longitude
Inclination (degrees)
Orbital Period (minutes)
Azimuth
Elevation
Range (km)
Doppler Factor

Next 0 passes for location: London (51.5072 / 0.1276)

No passes found over London.
IRIDIUM 102